User: anonymous   Login
Location: Wald
(31.7579°N, 86.6655°W)
Time: 12:16:35
(UTC+00:00)
Language:

Cosmos 468 Rocket - Orbit

View from above orbital plane
View from above orbital plane
View from above satellite
View from above satellite

Ground track
Ground track

The orbit data is extracted from the following two-line orbital elements,

1  5707U 71114B   20262.62238367 +.00000054 +00000-0 +25891-4 0  9990
2  5707 074.0274 051.6120 0024857 189.7073 170.3604 14.38908499553640
Epoch (UTC): 18 September 2020 14:56:13
Eccentricity: 0.0024857
inclination: 74.0274°
perigee height: 744 km
apogee height: 780 km
right ascension of ascending node: 51.6120°
argument of perigee: 189.7073°
revolutions per day: 14.38908499
mean anomaly at epoch: 170.3604°
orbit number at epoch: 55364

The dashed part of the orbit path shows where the satellite is in the earth's shadow,  

DLR